| time (UTC) | temp C | wind direction | speed KPH | gust KPH | rain 1hr cm | rain 24hr cm | rain mn cm | humidity % | barometer mb |
| 20260508135732 | 11 | 167 | 9.7 | 14.5 | 0.00 | 0.00 | 0.00 | 62 | 1012.6 |
| 20260508135453 | 11 | 177 | 8.0 | 11.3 | 0.00 | 0.00 | 0.00 | 63 | 1012.5 |
| 20260508134730 | 11 | 167 | 8.0 | 12.9 | 0.00 | 0.00 | 0.00 | 64 | 1012.5 |
| 20260508134230 | 11 | 159 | 8.0 | 12.9 | 0.00 | 0.00 | 0.00 | 64 | 1012.4 |
| 20260508133728 | 11 | 161 | 8.0 | 11.3 | 0.00 | 0.00 | 0.00 | 64 | 1012.4 |
| 20260508133228 | 11 | 160 | 6.4 | 11.3 | 0.00 | 0.00 | 0.00 | 66 | 1012.3 |
| 20260508132728 | 10 | 177 | 4.8 | 11.3 | 0.00 | 0.00 | 0.00 | 68 | 1012.4 |
| 20260508132228 | 10 | 163 | 4.8 | 11.3 | 0.00 | 0.00 | 0.00 | 67 | 1012.4 |
| 20260508132218 | 10 | 159 | 4.8 | 8.0 | 0.00 | 0.00 | 0.00 | 67 | 1012.4 |
| 20260508131228 | 10 | 167 | 3.2 | 8.0 | 0.00 | 0.00 | 0.00 | 67 | 1012.4 |
| 20260508130728 | 10 | 167 | 3.2 | 8.0 | 0.00 | 0.00 | 0.00 | 68 | 1012.4 |
| 20260508130228 | 10 | 163 | 4.8 | 8.0 | 0.00 | 0.00 | 0.00 | 69 | 1012.5 |
| 20260508125727 | 9 | 166 | 6.4 | 8.0 | 0.00 | 0.00 | 0.00 | 67 | 1012.5 |
| 20260508125228 | 9 | 163 | 4.8 | 8.0 | 0.00 | 0.00 | 0.00 | 67 | 1012.4 |
| 20260508124728 | 9 | 163 | 4.8 | 6.4 | 0.00 | 0.00 | 0.00 | 68 | 1012.4 |
| 20260508124228 | 9 | 163 | 3.2 | 6.4 | 0.00 | 0.00 | 0.00 | 69 | 1012.3 |
| 20260508123728 | 9 | 159 | 3.2 | 6.4 | 0.00 | 0.00 | 0.00 | 68 | 1012.3 |
| 20260508123228 | 9 | 160 | 3.2 | 6.4 | 0.00 | 0.00 | 0.00 | 70 | 1012.3 |
| 20260508122726 | 8 | 161 | 4.8 | 6.4 | 0.00 | 0.00 | 0.00 | 70 | 1012.3 |
| 20260508122221 | 8 | 159 | 4.8 | 6.4 | 0.00 | 0.00 | 0.00 | 71 | 1012.3 |
| 20260508121715 | 8 | 159 | 4.8 | 6.4 | 0.00 | 0.00 | 0.00 | 70 | 1012.4 |
| 20260508121209 | 8 | 162 | 4.8 | 6.4 | 0.00 | 0.00 | 0.00 | 72 | 1012.2 |
| 20260508120703 | 8 | 165 | 4.8 | 8.0 | 0.00 | 0.00 | 0.00 | 71 | 1012.2 |
| 20260508120157 | 8 | 163 | 4.8 | 8.0 | 0.00 | 0.00 | 0.00 | 74 | 1012.2 |
| 20260508115650 | 8 | 167 | 4.8 | 8.0 | 0.00 | 0.00 | 0.00 | 74 | 1012.3 |
| 20260508115144 | 7 | 162 | 3.2 | 6.4 | 0.00 | 0.00 | 0.00 | 75 | 1012.2 |
| 20260508114638 | 7 | 167 | 3.2 | 4.8 | 0.00 | 0.00 | 0.00 | 75 | 1012.1 |
| 20260508114133 | 7 | 169 | 1.6 | 3.2 | 0.00 | 0.00 | 0.00 | 79 | 1012.1 |
| 20260508113627 | 6 | 175 | 1.6 | 3.2 | 0.00 | 0.00 | 0.00 | 79 | 1012.1 |
| 20260508113121 | 6 | 175 | 1.6 | 3.2 | 0.00 | 0.00 | 0.00 | 78 | 1012.1 |
| 20260508112615 | 6 | 181 | 1.6 | 1.6 | 0.00 | 0.00 | 0.00 | 79 | 1012.1 |
| 20260508112109 | 6 | 181 | 1.6 | 1.6 | 0.00 | 0.00 | 0.00 | 80 | 1012.1 |
| 20260508111603 | 6 | 181 | 1.6 | 1.6 | 0.00 | 0.00 | 0.00 | 79 | 1012.1 |
| 20260508111056 | 6 | 181 | 1.6 | 1.6 | 0.00 | 0.00 | 0.00 | 79 | 1012.0 |
| 20260508110551 | 5 | 181 | 1.6 | 1.6 | 0.00 | 0.00 | 0.00 | 79 | 1012.0 |
| 20260508110045 | 5 | 181 | 1.6 | 1.6 | 0.00 | 0.00 | 0.00 | 80 | 1011.9 |
| 20260508105802 | 5 | 181 | 1.6 | 1.6 | 0.00 | 0.00 | 0.00 | 81 | 1011.9 |
| 20260508105038 | 5 | 181 | 0.0 | 1.6 | 0.00 | 0.00 | 0.00 | 82 | 1011.8 |
| 20260508104528 | 5 | 181 | 1.6 | 1.6 | 0.00 | 0.00 | 0.00 | 82 | 1011.8 |
| 20260508104020 | 5 | 181 | 1.6 | 1.6 | 0.00 | 0.00 | 0.00 | 82 | 1011.7 |
| 20260508103739 | 5 | 181 | 1.6 | 1.6 | 0.00 | 0.00 | 0.00 | 82 | 1011.7 |
| 20260508103009 | 5 | 181 | 0.0 | 1.6 | 0.00 | 0.00 | 0.00 | 82 | 1011.7 |
| 20260508102503 | 5 | 181 | 0.0 | 1.6 | 0.00 | 0.00 | 0.00 | 83 | 1011.6 |
| 20260508101957 | 4 | 181 | 0.0 | 3.2 | 0.00 | 0.00 | 0.00 | 86 | 1011.6 |
| 20260508101452 | 4 | 181 | 0.0 | 3.2 | 0.00 | 0.00 | 0.00 | 88 | 1011.5 |
| 20260508100945 | 3 | 181 | 0.0 | 1.6 | 0.00 | 0.00 | 0.00 | 89 | 1011.5 |
| 20260508100439 | 3 | 181 | 0.0 | 0.0 | 0.00 | 0.00 | 0.00 | 89 | 1011.5 |
| 20260508095933 | 4 | 181 | 0.0 | 0.0 | 0.00 | 0.00 | 0.00 | 89 | 1011.6 |
| 20260508095427 | 4 | 181 | 0.0 | 0.0 | 0.00 | 0.00 | 0.00 | 89 | 1011.6 |
| 20260508094921 | 4 | 181 | 0.0 | 0.0 | 0.00 | 0.00 | 0.00 | 90 | 1011.7 |
| 20260508094415 | 3 | 181 | 0.0 | 0.0 | 0.00 | 0.00 | 0.00 | 89 | 1011.7 |
| 20260508093909 | 3 | 181 | 0.0 | 0.0 | 0.00 | 0.00 | 0.00 | 88 | 1011.8 |
| 20260508093403 | 4 | 181 | 0.0 | 0.0 | 0.00 | 0.00 | 0.00 | 88 | 1011.8 |
| 20260508092857 | 4 | 181 | 0.0 | 0.0 | 0.00 | 0.00 | 0.00 | 88 | 1011.8 |
| 20260508092351 | 4 | 181 | 0.0 | 0.0 | 0.00 | 0.00 | 0.00 | 87 | 1011.8 |
| 20260508092331 | 4 | 181 | 0.0 | 0.0 | 0.00 | 0.00 | 0.00 | 87 | 1011.8 |
| 20260508091338 | 4 | 181 | 0.0 | 0.0 | 0.00 | 0.00 | 0.00 | 86 | 1011.8 |
| 20260508090833 | 4 | 181 | 0.0 | 0.0 | 0.00 | 0.00 | 0.00 | 86 | 1011.9 |
| 20260508090549 | 4 | 181 | 0.0 | 0.0 | 0.00 | 0.00 | 0.00 | 85 | 1011.9 |
| 20260508085821 | 4 | 181 | 0.0 | 0.0 | 0.00 | 0.00 | 0.00 | 85 | 1011.9 |
| 20260508085315 | 5 | 181 | 0.0 | 0.0 | 0.00 | 0.00 | 0.00 | 85 | 1011.9 |
| 20260508084809 | 5 | 181 | 0.0 | 0.0 | 0.00 | 0.00 | 0.00 | 85 | 1011.9 |
| 20260508084520 | 5 | 181 | 0.0 | 0.0 | 0.00 | 0.00 | 0.00 | 84 | 1011.9 |
| 20260508083757 | 5 | 181 | 0.0 | 0.0 | 0.00 | 0.00 | 0.00 | 83 | 1011.9 |
| 20260508083251 | 5 | 181 | 0.0 | 0.0 | 0.00 | 0.00 | 0.00 | 82 | 1012.0 |
| 20260508082745 | 6 | 181 | 0.0 | 0.0 | 0.00 | 0.00 | 0.00 | 82 | 1011.9 |
| 20260508082239 | 6 | 181 | 0.0 | 0.0 | 0.00 | 0.00 | 0.00 | 81 | 1011.8 |
| 20260508081952 | 6 | 181 | 0.0 | 0.0 | 0.00 | 0.00 | 0.00 | 81 | 1011.8 |
| 20260508081227 | 6 | 181 | 0.0 | 0.0 | 0.00 | 0.00 | 0.00 | 80 | 1011.7 |
| 20260508080723 | 6 | 181 | 0.0 | 0.0 | 0.00 | 0.00 | 0.00 | 79 | 1011.7 |
| 20260508080215 | 7 | 181 | 0.0 | 0.0 | 0.00 | 0.00 | 0.00 | 78 | 1011.8 |
| 20260508075710 | 7 | 181 | 0.0 | 0.0 | 0.00 | 0.00 | 0.00 | 78 | 1011.9 |
| 20260508075203 | 7 | 181 | 0.0 | 0.0 | 0.00 | 0.00 | 0.00 | 77 | 1011.9 |
| 20260508074918 | 7 | 181 | 0.0 | 0.0 | 0.00 | 0.00 | 0.00 | 77 | 1012.0 |
| 20260508074152 | 7 | 181 | 0.0 | 0.0 | 0.00 | 0.00 | 0.00 | 78 | 1012.0 |
| 20260508073645 | 7 | 181 | 0.0 | 0.0 | 0.00 | 0.00 | 0.00 | 76 | 1012.0 |
| 20260508073139 | 7 | 181 | 0.0 | 0.0 | 0.00 | 0.00 | 0.00 | 78 | 1012.0 |
| 20260508072855 | 7 | 181 | 0.0 | 0.0 | 0.00 | 0.00 | 0.00 | 76 | 1012.1 |
| 20260508072133 | 7 | 181 | 0.0 | 0.0 | 0.00 | 0.00 | 0.00 | 77 | 1012.2 |
| 20260508071633 | 8 | 181 | 0.0 | 0.0 | 0.00 | 0.00 | 0.00 | 74 | 1012.0 |
| 20260508071133 | 8 | 181 | 0.0 | 3.2 | 0.00 | 0.00 | 0.00 | 76 | 1012.0 |
| 20260508070631 | 8 | 181 | 0.0 | 3.2 | 0.00 | 0.00 | 0.00 | 76 | 1012.0 |
| 20260508070129 | 8 | 181 | 0.0 | 3.2 | 0.00 | 0.00 | 0.00 | 72 | 1012.2 |
| 20260508065847 | 8 | 181 | 1.6 | 3.2 | 0.00 | 0.00 | 0.00 | 70 | 1012.3 |
| 20260508065347 | 8 | 181 | 3.2 | 6.4 | 0.00 | 0.00 | 0.00 | 70 | 1012.5 |
| 20260508064629 | 8 | 182 | 3.2 | 6.4 | 0.00 | 0.00 | 0.00 | 69 | 1012.6 |
| 20260508064129 | 8 | 182 | 4.8 | 9.7 | 0.00 | 0.00 | 0.00 | 68 | 1012.6 |
| 20260508063629 | 8 | 180 | 4.8 | 9.7 | 0.00 | 0.00 | 0.00 | 68 | 1012.6 |
| 20260508063130 | 8 | 174 | 4.8 | 8.0 | 0.00 | 0.00 | 0.00 | 68 | 1012.7 |
| 20260508062629 | 8 | 180 | 4.8 | 8.0 | 0.00 | 0.00 | 0.00 | 68 | 1012.8 |
| 20260508062129 | 8 | 180 | 6.4 | 9.7 | 0.00 | 0.00 | 0.00 | 68 | 1013.1 |
| 20260508061629 | 8 | 183 | 6.4 | 9.7 | 0.00 | 0.00 | 0.00 | 68 | 1013.1 |
| 20260508061129 | 7 | 176 | 4.8 | 9.7 | 0.00 | 0.00 | 0.00 | 72 | 1013.0 |
| 20260508060857 | 7 | 169 | 1.6 | 9.7 | 0.00 | 0.00 | 0.00 | 78 | 1013.0 |
| 20260508060127 | 6 | 200 | 1.6 | 4.8 | 0.00 | 0.00 | 0.00 | 80 | 1012.8 |
| 20260508055849 | 6 | 202 | 1.6 | 3.2 | 0.00 | 0.00 | 0.00 | 82 | 1012.8 |
| 20260508055127 | 6 | 178 | 1.6 | 3.2 | 0.00 | 0.00 | 0.00 | 84 | 1012.6 |
| 20260508054627 | 6 | 178 | 0.0 | 3.2 | 0.00 | 0.00 | 0.00 | 84 | 1012.4 |
| 20260508054353 | 6 | 178 | 0.0 | 3.2 | 0.00 | 0.00 | 0.00 | 83 | 1012.2 |
| 20260508053627 | 6 | 178 | 0.0 | 0.0 | 0.00 | 0.00 | 0.00 | 83 | 1012.2 |
| 20260508053126 | 6 | 178 | 0.0 | 0.0 | 0.00 | 0.00 | 0.00 | 82 | 1012.3 |
| 20260508052629 | 6 | 178 | 0.0 | 0.0 | 0.00 | 0.00 | 0.00 | 82 | 1012.3 |
| 20260508052127 | 6 | 178 | 0.0 | 0.0 | 0.00 | 0.00 | 0.00 | 82 | 1012.3 |
| 20260508051627 | 6 | 178 | 0.0 | 0.0 | 0.00 | 0.00 | 0.00 | 80 | 1012.3 |
| 20260508051127 | 6 | 178 | 0.0 | 0.0 | 0.00 | 0.00 | 0.00 | 79 | 1012.4 |
| 20260508050627 | 6 | 178 | 0.0 | 0.0 | 0.00 | 0.00 | 0.00 | 81 | 1012.4 |
| 20260508050127 | 6 | 178 | 0.0 | 0.0 | 0.00 | 0.00 | 0.00 | 80 | 1012.5 |
| 20260508045627 | 6 | 178 | 0.0 | 0.0 | 0.00 | 0.00 | 0.00 | 81 | 1012.4 |
| 20260508045126 | 6 | 178 | 0.0 | 0.0 | 0.00 | 0.00 | 0.00 | 79 | 1012.5 |
| 20260508044627 | 6 | 178 | 0.0 | 0.0 | 0.00 | 0.00 | 0.00 | 81 | 1012.5 |
| 20260508044127 | 6 | 178 | 0.0 | 0.0 | 0.00 | 0.00 | 0.00 | 82 | 1012.5 |
| 20260508043624 | 6 | 178 | 0.0 | 0.0 | 0.00 | 0.00 | 0.00 | 82 | 1012.5 |
| 20260508043118 | 6 | 178 | 0.0 | 0.0 | 0.00 | 0.00 | 0.00 | 79 | 1012.5 |
| 20260508042617 | 6 | 178 | 0.0 | 0.0 | 0.00 | 0.00 | 0.00 | 78 | 1012.5 |
| 20260508042116 | 6 | 178 | 0.0 | 0.0 | 0.00 | 0.00 | 0.00 | 78 | 1012.6 |
| 20260508041614 | 6 | 178 | 0.0 | 0.0 | 0.00 | 0.00 | 0.00 | 78 | 1012.5 |
| 20260508041113 | 6 | 178 | 0.0 | 0.0 | 0.00 | 0.00 | 0.00 | 78 | 1012.6 |
| 20260508040611 | 6 | 178 | 0.0 | 0.0 | 0.00 | 0.00 | 0.00 | 78 | 1012.6 |
| 20260508040109 | 6 | 178 | 0.0 | 0.0 | 0.00 | 0.00 | 0.00 | 79 | 1012.6 |
| 20260508035827 | 6 | 178 | 0.0 | 0.0 | 0.00 | 0.00 | 0.00 | 79 | 1012.6 |
| 20260508035106 | 6 | 178 | 0.0 | 0.0 | 0.00 | 0.00 | 0.00 | 79 | 1012.5 |
| 20260508034606 | 6 | 178 | 0.0 | 1.6 | 0.00 | 0.00 | 0.00 | 81 | 1012.6 |
| 20260508034106 | 6 | 178 | 0.0 | 1.6 | 0.00 | 0.00 | 0.00 | 81 | 1012.7 |
| 20260508033606 | 6 | 178 | 0.0 | 0.0 | 0.00 | 0.00 | 0.00 | 81 | 1012.7 |
| 20260508033105 | 5 | 178 | 0.0 | 0.0 | 0.00 | 0.00 | 0.00 | 80 | 1012.7 |
| 20260508033042 | 5 | 178 | 0.0 | 0.0 | 0.00 | 0.00 | 0.00 | 78 | 1012.6 |
| 20260508032105 | 5 | 178 | 0.0 | 0.0 | 0.00 | 0.00 | 0.00 | 78 | 1012.5 |
| 20260508031606 | 5 | 178 | 0.0 | 0.0 | 0.00 | 0.00 | 0.00 | 77 | 1012.5 |
| 20260508031106 | 5 | 178 | 0.0 | 0.0 | 0.00 | 0.00 | 0.00 | 80 | 1012.4 |
| 20260508030606 | 5 | 178 | 0.0 | 1.6 | 0.00 | 0.00 | 0.00 | 79 | 1012.5 |
| 20260508030107 | 5 | 178 | 0.0 | 1.6 | 0.00 | 0.00 | 0.00 | 79 | 1012.5 |
| 20260508025826 | 5 | 188 | 0.0 | 0.0 | 0.00 | 0.00 | 0.00 | 78 | 1012.5 |
| 20260508025106 | 5 | 188 | 0.0 | 3.2 | 0.00 | 0.00 | 0.00 | 79 | 1012.5 |
| 20260508024606 | 5 | 188 | 0.0 | 3.2 | 0.00 | 0.00 | 0.00 | 79 | 1012.6 |
| 20260508024103 | 5 | 188 | 0.0 | 1.6 | 0.00 | 0.00 | 0.00 | 78 | 1012.5 |
| 20260508023818 | 5 | 188 | 0.0 | 0.0 | 0.00 | 0.00 | 0.00 | 77 | 1012.5 |
| 20260508023050 | 5 | 188 | 0.0 | 0.0 | 0.00 | 0.00 | 0.00 | 78 | 1012.4 |
| 20260508022545 | 5 | 188 | 0.0 | 0.0 | 0.00 | 0.00 | 0.00 | 77 | 1012.3 |
| 20260508022039 | 6 | 188 | 0.0 | 0.0 | 0.00 | 0.00 | 0.00 | 78 | 1012.4 |
| 20260508021804 | 6 | 188 | 0.0 | 0.0 | 0.00 | 0.00 | 0.00 | 76 | 1012.5 |
| 20260508021027 | 6 | 188 | 0.0 | 0.0 | 0.00 | 0.00 | 0.00 | 74 | 1012.5 |
| 20260508020520 | 6 | 188 | 0.0 | 0.0 | 0.00 | 0.00 | 0.00 | 74 | 1012.4 |
| 20260508020232 | 6 | 188 | 0.0 | 0.0 | 0.00 | 0.00 | 0.00 | 73 | 1012.4 |
| 20260508015509 | 6 | 188 | 0.0 | 0.0 | 0.00 | 0.00 | 0.00 | 72 | 1012.6 |
| 20260508015454 | 6 | 188 | 0.0 | 0.0 | 0.00 | 0.00 | 0.00 | 71 | 1012.5 |
| 20260508014457 | 6 | 188 | 0.0 | 0.0 | 0.00 | 0.00 | 0.00 | 70 | 1012.3 |
| 20260508013952 | 6 | 188 | 0.0 | 0.0 | 0.00 | 0.00 | 0.00 | 71 | 1012.4 |
| 20260508013445 | 6 | 188 | 0.0 | 0.0 | 0.00 | 0.00 | 0.00 | 68 | 1012.4 |
| 20260508012939 | 7 | 188 | 0.0 | 0.0 | 0.00 | 0.00 | 0.00 | 68 | 1012.3 |
| 20260508012433 | 7 | 188 | 0.0 | 0.0 | 0.00 | 0.00 | 0.00 | 69 | 1012.3 |
| 20260508011927 | 7 | 188 | 0.0 | 0.0 | 0.00 | 0.00 | 0.00 | 65 | 1012.2 |
| 20260508011422 | 7 | 188 | 0.0 | 0.0 | 0.00 | 0.00 | 0.00 | 65 | 1012.2 |
| 20260508010915 | 7 | 188 | 0.0 | 0.0 | 0.00 | 0.00 | 0.00 | 67 | 1012.1 |
| 20260508010409 | 8 | 188 | 0.0 | 0.0 | 0.00 | 0.00 | 0.00 | 68 | 1012.1 |
| 20260508005902 | 8 | 188 | 0.0 | 0.0 | 0.00 | 0.00 | 0.00 | 66 | 1012.1 |
| 20260508005355 | 8 | 188 | 0.0 | 0.0 | 0.00 | 0.00 | 0.00 | 59 | 1012.1 |
| 20260508004849 | 8 | 188 | 0.0 | 0.0 | 0.00 | 0.00 | 0.00 | 63 | 1012.1 |
| 20260508004343 | 9 | 188 | 0.0 | 0.0 | 0.00 | 0.00 | 0.00 | 58 | 1012.0 |
| 20260508003836 | 9 | 188 | 0.0 | 0.0 | 0.00 | 0.00 | 0.00 | 56 | 1011.9 |
| 20260508003331 | 10 | 188 | 0.0 | 0.0 | 0.00 | 0.00 | 0.00 | 60 | 1012.0 |
| 20260508003044 | 10 | 188 | 0.0 | 0.0 | 0.00 | 0.00 | 0.00 | 59 | 1011.9 |
| 20260508002319 | 10 | 188 | 0.0 | 3.2 | 0.00 | 0.00 | 0.00 | 55 | 1011.9 |
| 20260508001813 | 11 | 188 | 1.6 | 3.2 | 0.00 | 0.00 | 0.00 | 51 | 1011.8 |
| 20260508001308 | 11 | 188 | 1.6 | 4.8 | 0.00 | 0.00 | 0.00 | 49 | 1011.9 |
| 20260508000801 | 11 | 190 | 3.2 | 4.8 | 0.00 | 0.00 | 0.00 | 46 | 1011.8 |
| 20260508000257 | 11 | 194 | 3.2 | 6.4 | 0.00 | 0.00 | 0.00 | 46 | 1011.7 |
| 20260507235749 | 11 | 194 | 3.2 | 6.4 | 0.00 | 0.00 | 0.00 | 44 | 1011.8 |
| 20260507235506 | 11 | 188 | 1.6 | 6.4 | 0.00 | 0.00 | 0.00 | 46 | 1011.6 |
| 20260507234737 | 11 | 200 | 1.6 | 3.2 | 0.00 | 0.00 | 0.00 | 44 | 1011.6 |
| 20260507234231 | 12 | 194 | 0.0 | 3.2 | 0.00 | 0.00 | 0.00 | 47 | 1011.6 |
| 20260507233726 | 12 | 204 | 0.0 | 4.8 | 0.00 | 0.00 | 0.00 | 48 | 1011.6 |
| 20260507233219 | 12 | 203 | 1.6 | 4.8 | 0.00 | 0.00 | 0.00 | 45 | 1011.6 |
| 20260507232713 | 12 | 203 | 1.6 | 4.8 | 0.00 | 0.00 | 0.00 | 45 | 1011.6 |
| 20260507232207 | 11 | 139 | 1.6 | 3.2 | 0.00 | 0.00 | 0.00 | 45 | 1011.6 |
| 20260507231701 | 11 | 186 | 1.6 | 3.2 | 0.00 | 0.00 | 0.00 | 45 | 1011.5 |
| 20260507231155 | 11 | 242 | 1.6 | 3.2 | 0.00 | 0.00 | 0.00 | 44 | 1011.6 |
| 20260507230644 | 11 | 205 | 1.6 | 4.8 | 0.00 | 0.00 | 0.00 | 45 | 1011.6 |
| 20260507230139 | 11 | 153 | 1.6 | 6.4 | 0.00 | 0.00 | 0.00 | 46 | 1011.7 |
| 20260507225633 | 11 | 213 | 1.6 | 6.4 | 0.00 | 0.00 | 0.00 | 44 | 1011.7 |
| 20260507225127 | 12 | 196 | 1.6 | 4.8 | 0.00 | 0.00 | 0.00 | 44 | 1011.7 |
| 20260507224621 | 12 | 173 | 3.2 | 4.8 | 0.00 | 0.00 | 0.00 | 46 | 1011.7 |
| 20260507224115 | 11 | 182 | 3.2 | 6.4 | 0.00 | 0.00 | 0.00 | 47 | 1011.8 |
| 20260507223609 | 12 | 192 | 4.8 | 14.5 | 0.00 | 0.00 | 0.00 | 43 | 1011.8 |
| 20260507223323 | 12 | 176 | 4.8 | 14.5 | 0.00 | 0.00 | 0.00 | 45 | 1011.8 |
| 20260507222557 | 12 | 180 | 3.2 | 11.3 | 0.00 | 0.00 | 0.00 | 43 | 1011.8 |
| 20260507222311 | 12 | 171 | 3.2 | 8.0 | 0.00 | 0.00 | 0.00 | 42 | 1011.8 |
| 20260507221545 | 12 | 182 | 3.2 | 8.0 | 0.00 | 0.00 | 0.00 | 41 | 1011.8 |
| 20260507221259 | 12 | 203 | 3.2 | 9.7 | 0.00 | 0.00 | 0.00 | 44 | 1011.9 |
| 20260507220534 | 12 | 186 | 3.2 | 9.7 | 0.00 | 0.00 | 0.00 | 41 | 1011.8 |
| 20260507220027 | 12 | 208 | 3.2 | 8.0 | 0.00 | 0.00 | 0.00 | 42 | 1011.7 |
| 20260507215521 | 12 | 172 | 3.2 | 8.0 | 0.00 | 0.00 | 0.00 | 42 | 1011.7 |
| 20260507215015 | 12 | 194 | 6.4 | 12.9 | 0.00 | 0.00 | 0.00 | 41 | 1011.7 |
| 20260507214509 | 12 | 196 | 8.0 | 12.9 | 0.00 | 0.00 | 0.00 | 44 | 1011.7 |
| 20260507214007 | 13 | 185 | 6.4 | 12.9 | 0.00 | 0.00 | 0.00 | 42 | 1011.6 |
| 20260507213507 | 13 | 203 | 4.8 | 14.5 | 0.00 | 0.00 | 0.00 | 44 | 1011.6 |
| 20260507213005 | 13 | 191 | 6.4 | 14.5 | 0.00 | 0.00 | 0.00 | 42 | 1011.5 |
| 20260507212504 | 13 | 169 | 4.8 | 14.5 | 0.00 | 0.00 | 0.00 | 40 | 1011.5 |
| 20260507212446 | 13 | 190 | 3.2 | 9.7 | 0.00 | 0.00 | 0.00 | 42 | 1011.5 |
| 20260507211503 | 13 | 236 | 3.2 | 12.9 | 0.00 | 0.00 | 0.00 | 43 | 1011.4 |
| 20260507211004 | 13 | 201 | 3.2 | 12.9 | 0.00 | 0.00 | 0.00 | 40 | 1011.3 |
| 20260507210503 | 13 | 252 | 3.2 | 9.7 | 0.00 | 0.00 | 0.00 | 43 | 1011.4 |
| 20260507210003 | 13 | 180 | 4.8 | 14.5 | 0.00 | 0.00 | 0.00 | 42 | 1011.3 |
| 20260507205503 | 13 | 202 | 6.4 | 14.5 | 0.00 | 0.00 | 0.00 | 43 | 1011.3 |
| 20260507205001 | 12 | 141 | 6.4 | 12.9 | 0.00 | 0.00 | 0.00 | 44 | 1011.4 |
| 20260507204459 | 12 | 188 | 4.8 | 12.9 | 0.00 | 0.00 | 0.00 | 43 | 1011.3 |
| 20260507204000 | 12 | 244 | 3.2 | 9.7 | 0.00 | 0.00 | 0.00 | 44 | 1011.4 |
| 20260507203459 | 12 | 261 | 4.8 | 16.1 | 0.00 | 0.00 | 0.00 | 44 | 1011.4 |
| 20260507203218 | 12 | 171 | 8.0 | 16.1 | 0.00 | 0.00 | 0.00 | 44 | 1011.3 |
| 20260507202939 | 12 | 178 | 9.7 | 17.7 | 0.00 | 0.00 | 0.00 | 45 | 1011.3 |
| 20260507201959 | 13 | 193 | 9.7 | 17.7 | 0.00 | 0.00 | 0.00 | 47 | 1011.4 |
| 20260507201459 | 12 | 202 | 8.0 | 16.1 | 0.00 | 0.00 | 0.00 | 46 | 1011.5 |
| 20260507200959 | 12 | 188 | 8.0 | 16.1 | 0.00 | 0.00 | 0.00 | 45 | 1011.4 |
| 20260507200459 | 12 | 180 | 8.0 | 16.1 | 0.00 | 0.00 | 0.00 | 49 | 1011.3 |
| 20260507195959 | 12 | 161 | 6.4 | 14.5 | 0.00 | 0.00 | 0.00 | 48 | 1011.4 |
| 20260507195459 | 12 | 240 | 6.4 | 12.9 | 0.00 | 0.00 | 0.00 | 47 | 1011.3 |
| 20260507194959 | 12 | 190 | 6.4 | 14.5 | 0.00 | 0.00 | 0.00 | 45 | 1011.4 |
| 20260507194459 | 13 | 215 | 8.0 | 19.3 | 0.00 | 0.00 | 0.00 | 47 | 1011.5 |
| 20260507193958 | 12 | 196 | 11.3 | 19.3 | 0.00 | 0.00 | 0.00 | 47 | 1011.6 |
| 20260507193459 | 12 | 178 | 8.0 | 16.1 | 0.00 | 0.00 | 0.00 | 45 | 1011.5 |
| 20260507193230 | 12 | 171 | 6.4 | 16.1 | 0.00 | 0.00 | 0.00 | 47 | 1011.5 |
| 20260507192724 | 13 | 179 | 9.7 | 16.1 | 0.00 | 0.00 | 0.00 | 47 | 1011.5 |
| 20260507191959 | 12 | 200 | 11.3 | 17.7 | 0.00 | 0.00 | 0.00 | 49 | 1011.6 |
| 20260507191459 | 12 | 171 | 11.3 | 17.7 | 0.00 | 0.00 | 0.00 | 50 | 1011.6 |
| 20260507190959 | 12 | 175 | 8.0 | 17.7 | 0.00 | 0.00 | 0.00 | 50 | 1011.6 |
| 20260507190725 | 12 | 187 | 6.4 | 17.7 | 0.00 | 0.00 | 0.00 | 52 | 1011.7 |
| 20260507185957 | 12 | 248 | 6.4 | 17.7 | 0.00 | 0.00 | 0.00 | 48 | 1011.7 |
| 20260507185456 | 12 | 184 | 8.0 | 17.7 | 0.00 | 0.00 | 0.00 | 51 | 1011.7 |
| 20260507184950 | 12 | 172 | 9.7 | 17.7 | 0.00 | 0.00 | 0.00 | 50 | 1011.7 |
| 20260507184444 | 12 | 177 | 9.7 | 19.3 | 0.00 | 0.00 | 0.00 | 50 | 1011.7 |
| 20260507184156 | 12 | 187 | 11.3 | 19.3 | 0.00 | 0.00 | 0.00 | 51 | 1011.7 |
| 20260507183432 | 12 | 174 | 11.3 | 19.3 | 0.00 | 0.00 | 0.00 | 49 | 1011.7 |
| 20260507182926 | 12 | 178 | 9.7 | 19.3 | 0.00 | 0.00 | 0.00 | 49 | 1011.7 |
| 20260507182900 | 12 | 181 | 6.4 | 16.1 | 0.00 | 0.00 | 0.00 | 49 | 1011.6 |
| 20260507181914 | 12 | 189 | 6.4 | 12.9 | 0.00 | 0.00 | 0.00 | 49 | 1011.6 |
| 20260507181408 | 12 | 196 | 4.8 | 12.9 | 0.00 | 0.00 | 0.00 | 51 | 1011.7 |
| 20260507181119 | 12 | 177 | 6.4 | 16.1 | 0.00 | 0.00 | 0.00 | 45 | 1011.7 |
| 20260507180356 | 12 | 186 | 9.7 | 16.1 | 0.00 | 0.00 | 0.00 | 45 | 1011.8 |
| 20260507175851 | 12 | 184 | 8.0 | 14.5 | 0.00 | 0.00 | 0.00 | 48 | 1011.7 |
| 20260507175344 | 12 | 183 | 9.7 | 16.1 | 0.00 | 0.00 | 0.00 | 50 | 1011.8 |
| 20260507174838 | 12 | 174 | 9.7 | 16.1 | 0.00 | 0.00 | 0.00 | 47 | 1011.9 |
| 20260507174331 | 13 | 184 | 6.4 | 14.5 | 0.00 | 0.00 | 0.00 | 46 | 1011.9 |
| 20260507173826 | 12 | 176 | 6.4 | 14.5 | 0.00 | 0.00 | 0.00 | 51 | 1012.0 |
| 20260507173320 | 12 | 192 | 8.0 | 14.5 | 0.00 | 0.00 | 0.00 | 47 | 1012.0 |
| 20260507172814 | 12 | 190 | 8.0 | 14.5 | 0.00 | 0.00 | 0.00 | 50 | 1012.1 |
| 20260507172310 | 12 | 182 | 6.4 | 12.9 | 0.00 | 0.00 | 0.00 | 48 | 1012.2 |
| 20260507171802 | 12 | 187 | 6.4 | 12.9 | 0.00 | 0.00 | 0.00 | 46 | 1012.2 |
| 20260507171255 | 12 | 182 | 8.0 | 17.7 | 0.00 | 0.00 | 0.00 | 47 | 1012.3 |
| 20260507170750 | 12 | 184 | 8.0 | 17.7 | 0.00 | 0.00 | 0.00 | 48 | 1012.3 |
| 20260507170244 | 12 | 179 | 8.0 | 14.5 | 0.00 | 0.00 | 0.00 | 48 | 1012.2 |
| 20260507165738 | 12 | 179 | 8.0 | 20.9 | 0.00 | 0.00 | 0.00 | 49 | 1012.2 |
| 20260507165232 | 12 | 176 | 8.0 | 20.9 | 0.00 | 0.00 | 0.00 | 49 | 1012.3 |
| 20260507164725 | 12 | 178 | 8.0 | 16.1 | 0.00 | 0.00 | 0.00 | 48 | 1012.3 |
| 20260507164220 | 12 | 186 | 6.4 | 16.1 | 0.00 | 0.00 | 0.00 | 46 | 1012.3 |
| 20260507163714 | 12 | 176 | 6.4 | 14.5 | 0.00 | 0.00 | 0.00 | 49 | 1012.3 |
| 20260507163208 | 12 | 182 | 8.0 | 16.1 | 0.00 | 0.00 | 0.00 | 47 | 1012.3 |
| 20260507162702 | 12 | 176 | 8.0 | 16.1 | 0.00 | 0.00 | 0.00 | 49 | 1012.3 |
| 20260507162157 | 11 | 169 | 6.4 | 14.5 | 0.00 | 0.00 | 0.00 | 49 | 1012.3 |
| 20260507161650 | 12 | 178 | 4.8 | 12.9 | 0.00 | 0.00 | 0.00 | 47 | 1012.3 |
| 20260507161144 | 12 | 178 | 6.4 | 12.9 | 0.00 | 0.00 | 0.00 | 49 | 1012.2 |
| 20260507160638 | 12 | 165 | 8.0 | 14.5 | 0.00 | 0.00 | 0.00 | 50 | 1012.3 |
| 20260507160132 | 11 | 173 | 6.4 | 14.5 | 0.00 | 0.00 | 0.00 | 48 | 1012.3 |
| 20260507155626 | 11 | 186 | 6.4 | 16.1 | 0.00 | 0.00 | 0.00 | 49 | 1012.2 |
| 20260507155342 | 11 | 194 | 6.4 | 16.1 | 0.00 | 0.00 | 0.00 | 49 | 1012.2 |
| 20260507154835 | 11 | 173 | 8.0 | 16.1 | 0.00 | 0.00 | 0.00 | 52 | 1012.3 |
| 20260507154108 | 11 | 187 | 6.4 | 16.1 | 0.00 | 0.00 | 0.00 | 53 | 1012.2 |
| 20260507153601 | 11 | 196 | 6.4 | 12.9 | 0.00 | 0.00 | 0.00 | 49 | 1012.2 |
| 20260507153056 | 11 | 166 | 6.4 | 12.9 | 0.00 | 0.00 | 0.00 | 50 | 1012.2 |
| 20260507152550 | 11 | 179 | 6.4 | 12.9 | 0.00 | 0.00 | 0.00 | 51 | 1012.1 |
| 20260507152307 | 11 | 166 | 6.4 | 14.5 | 0.00 | 0.00 | 0.00 | 53 | 1012.1 |
| 20260507151538 | 11 | 173 | 4.8 | 14.5 | 0.00 | 0.00 | 0.00 | 52 | 1012.1 |
| 20260507151032 | 11 | 179 | 4.8 | 11.3 | 0.00 | 0.00 | 0.00 | 51 | 1012.1 |
| 20260507150526 | 11 | 200 | 4.8 | 12.9 | 0.00 | 0.00 | 0.00 | 50 | 1012.1 |
| 20260507150020 | 11 | 188 | 6.4 | 12.9 | 0.00 | 0.00 | 0.00 | 51 | 1012.1 |
| 20260507145513 | 11 | 212 | 6.4 | 12.9 | 0.00 | 0.00 | 0.00 | 51 | 1012.2 |
| 20260507145008 | 11 | 180 | 6.4 | 12.9 | 0.00 | 0.00 | 0.00 | 55 | 1012.1 |
| 20260507144502 | 11 | 184 | 4.8 | 11.3 | 0.00 | 0.00 | 0.00 | 56 | 1012.2 |
| 20260507143956 | 10 | 190 | 4.8 | 11.3 | 0.00 | 0.00 | 0.00 | 55 | 1012.2 |
| 20260507143449 | 10 | 179 | 3.2 | 8.0 | 0.00 | 0.00 | 0.00 | 60 | 1012.2 |
| 20260507142945 | 10 | 186 | 4.8 | 9.7 | 0.00 | 0.00 | 0.00 | 57 | 1012.2 |
| 20260507142438 | 10 | 194 | 4.8 | 9.7 | 0.00 | 0.00 | 0.00 | 56 | 1012.3 |
| 20260507141932 | 10 | 185 | 4.8 | 9.7 | 0.00 | 0.00 | 0.00 | 59 | 1012.3 |
| 20260507141426 | 10 | 184 | 4.8 | 9.7 | 0.00 | 0.00 | 0.00 | 58 | 1012.4 |
| 20260507140920 | 10 | 185 | 3.2 | 8.0 | 0.00 | 0.00 | 0.00 | 60 | 1012.4 |
| 20260507140414 | 9 | 178 | 3.2 | 8.0 | 0.00 | 0.00 | 0.00 | 61 | 1012.3 |
| 20260507135909 | 9 | 187 | 3.2 | 8.0 | 0.00 | 0.00 | 0.00 | 62 | 1012.4 |